Terminal Aerodrome Forecast
Issued by NWS

Current Version | Previous Version | Graphics & Text | Print | Product List | Glossary On
Versions: 1 2 3 4 5 6 7 8 9 10 11 12 13 14 15 16 17 18 19 20 21 22 23 24 25
000
FTUS41 KPBZ 282046 AAB
TAFMGW
TAF AMD
KMGW 282046Z 2821/2918 VRB05KT P6SM VCTS BKN035CB
     FM290000 VRB05KT P6SM BKN015
     FM290800 VRB04KT P6SM OVC008
     FM291500 VRB03KT P6SM OVC015=

USA.gov is the U.S. government's official web portal to all federal, state and local government web resources and services.